User: anonymous   Login
Location: Unspecified
(0.0000°N, 0.0000°E)
Time: 00:05:27
(UTC+00:00)
Language:

STARLINK-5017 - Orbit

View from above orbital plane
View from above orbital plane
View from above satellite
View from above satellite

Ground track
Ground track

The orbit is defined by the following mean orbital elements,

1 53915U          26145.66668980 +.00000000 +00000-0 +19033-2 0 00001
2 53915  53.2158 307.8080 0000926  10.0116 154.5142 15.93236550    02
Epoch (UTC): 25 May 2026 16:00:01
Eccentricity: 0.0000926
inclination: 53.2158°
perigee height: 293 km
apogee height: 294 km
right ascension of ascending node: 307.8080°
argument of perigee: 10.0116°
revolutions per day: 15.93236550
mean anomaly at epoch: 154.5142°

The dashed part of the orbit path shows where the satellite is in the earth's shadow,  

DLR